• In Spain
  • List of Countries
  • For 7 days
  • Water Temperature
  • Satellite Maps
  • Weather Map
  • Weather Widgets
  • user-avatar
    Login

    Hourly Weather Oran

    Today, 23 September, Saturday

    Time Temperature Precipitation Wind Pressure Humidity
    00:00 +25°C° 0 mm 4 mps 752 mmHg 81%
    01:00 +25°C° 0 mm 4 mps 752 mmHg 82%
    02:00 +25°C° 0 mm 4 mps 752 mmHg 84%
    03:00 +25°C° 0 mm 4 mps 752 mmHg 85%
    04:00 +25°C° 0 mm 3 mps 752 mmHg 85%
    05:00 +25°C° 0 mm 3 mps 752 mmHg 85%
    06:00 +24°C° 0 mm 3 mps 753 mmHg 85%
    07:00 +25°C° 0 mm 3 mps 753 mmHg 79%
    08:00 +26°C° 0 mm 3 mps 753 mmHg 72%
    09:00 +27°C° 0 mm 3 mps 753 mmHg 66%
    10:00 +28°C° 0 mm 3 mps 753 mmHg 60%
    11:00 +30°C° 0 mm 4 mps 753 mmHg 54%
    12:00 +32°C° 0 mm 4 mps 753 mmHg 49%
    13:00 +32°C° 0 mm 5 mps 753 mmHg 50%
    14:00 +32°C° 0 mm 5 mps 752 mmHg 52%
    15:00 +32°C° 0 mm 6 mps 752 mmHg 53%
    16:00 +30°C° 0 mm 5 mps 752 mmHg 58%
    17:00 +29°C° 0 mm 5 mps 753 mmHg 62%
    18:00 +28°C° 0 mm 4 mps 753 mmHg 67%
    19:00 +27°C° 0 mm 4 mps 753 mmHg 70%
    20:00 +27°C° 0 mm 4 mps 754 mmHg 73%
    21:00 +26°C° 0 mm 3 mps 754 mmHg 76%
    22:00 +26°C° 0 mm 3 mps 754 mmHg 77%
    23:00 +26°C° 0 mm 3 mps 754 mmHg 79%

    Tomorrow, 24 September, Sunday

    Time Temperature Precipitation Wind Pressure Humidity
    00:00 +25°C° 0 mm 3 mps 754 mmHg 81%
    01:00 +25°C° 0 mm 2 mps 754 mmHg 83%
    02:00 +25°C° 0 mm 2 mps 754 mmHg 85%
    03:00 +24°C° 0 mm 2 mps 754 mmHg 87%
    04:00 +24°C° 0 mm 2 mps 754 mmHg 87%
    05:00 +24°C° 0 mm 2 mps 754 mmHg 88%
    06:00 +24°C° 0 mm 2 mps 754 mmHg 88%
    07:00 +25°C° 0 mm 2 mps 754 mmHg 80%
    08:00 +26°C° 0 mm 2 mps 755 mmHg 73%
    09:00 +27°C° 0 mm 2 mps 755 mmHg 65%
    10:00 +28°C° 0 mm 3 mps 755 mmHg 58%
    11:00 +30°C° 0 mm 3 mps 755 mmHg 51%
    12:00 +32°C° 0 mm 4 mps 755 mmHg 44%
    13:00 +32°C° 0 mm 4 mps 754 mmHg 43%
    14:00 +33°C° 0 mm 5 mps 754 mmHg 42%
    15:00 +33°C° 0 mm 5 mps 754 mmHg 40%
    16:00 +32°C° 0 mm 5 mps 754 mmHg 45%
    17:00 +30°C° 0 mm 4 mps 754 mmHg 49%
    18:00 +29°C° 0 mm 4 mps 754 mmHg 54%
    19:00 +29°C° 0 mm 3 mps 754 mmHg 58%
    20:00 +28°C° 0 mm 3 mps 754 mmHg 61%
    21:00 +27°C° 0 mm 2 mps 755 mmHg 65%
    22:00 +27°C° 0 mm 2 mps 754 mmHg 67%
    23:00 +26°C° 0 mm 1 mps 754 mmHg 70%

    Day after tomorrow, 25 September, Monday

    Time Temperature Precipitation Wind Pressure Humidity
    00:00 +26°C° 0 mm 1 mps 754 mmHg 73%
    01:00 +25°C° 0 mm 1 mps 754 mmHg 75%
    02:00 +25°C° 0 mm 1 mps 754 mmHg 77%
    03:00 +24°C° 0 mm 1 mps 753 mmHg 79%
    04:00 +24°C° 0 mm 1 mps 753 mmHg 81%
    05:00 +22°C° 0 mm 0 mps 753 mmHg 82%
    06:00 +21°C° 0 mm 0 mps 753 mmHg 84%
    07:00 +23°C° 0 mm 0 mps 753 mmHg 75%
    08:00 +24°C° 0 mm 0 mps 754 mmHg 66%
    09:00 +28°C° 0 mm 1 mps 754 mmHg 58%
    10:00 +29°C° 0 mm 1 mps 754 mmHg 51%
    11:00 +30°C° 0 mm 2 mps 754 mmHg 44%
    12:00 +32°C° 0 mm 2 mps 754 mmHg 38%
    13:00 +33°C° 0 mm 3 mps 754 mmHg 37%
    14:00 +33°C° 0 mm 3 mps 753 mmHg 37%
    15:00 +33°C° 0 mm 3 mps 753 mmHg 37%
    16:00 +31°C° 0 mm 3 mps 753 mmHg 40%
    17:00 +30°C° 0 mm 2 mps 753 mmHg 43%
    18:00 +29°C° 0 mm 1 mps 753 mmHg 46%
    19:00 +28°C° 0 mm 1 mps 753 mmHg 48%
    20:00 +28°C° 0 mm 1 mps 753 mmHg 50%
    21:00 +25°C° 0 mm 0 mps 753 mmHg 53%
    22:00 +25°C° 0 mm 0 mps 753 mmHg 54%
    23:00 +26°C° 0 mm 1 mps 753 mmHg 55%

    26 September, Tuesday

    Time Temperature Precipitation Wind Pressure Humidity
    00:00 +26°C° 0 mm 1 mps 753 mmHg 57%
    01:00 +25°C° 0 mm 1 mps 753 mmHg 57%
    02:00 +25°C° 0 mm 1 mps 752 mmHg 58%
    03:00 +24°C° 0 mm 1 mps 752 mmHg 59%
    04:00 +24°C° 0 mm 1 mps 752 mmHg 58%
    05:00 +24°C° 0 mm 1 mps 752 mmHg 58%
    06:00 +23°C° 0 mm 1 mps 752 mmHg 57%
    07:00 +25°C° 0 mm 1 mps 752 mmHg 49%
    08:00 +27°C° 0 mm 1 mps 753 mmHg 41%
    09:00 +29°C° 0 mm 1 mps 753 mmHg 33%
    10:00 +31°C° 0 mm 1 mps 753 mmHg 30%
    11:00 +32°C° 0 mm 2 mps 753 mmHg 26%
    12:00 +34°C° 0 mm 2 mps 752 mmHg 23%
    13:00 +34°C° 0 mm 3 mps 752 mmHg 24%
    14:00 +34°C° 0 mm 4 mps 752 mmHg 25%
    15:00 +34°C° 0 mm 4 mps 751 mmHg 26%
    16:00 +33°C° 0 mm 4 mps 751 mmHg 30%
    17:00 +32°C° 0 mm 4 mps 751 mmHg 34%
    18:00 +30°C° 0 mm 3 mps 751 mmHg 38%
    19:00 +29°C° 0 mm 3 mps 752 mmHg 41%
    20:00 +28°C° 0 mm 2 mps 752 mmHg 43%
    21:00 +28°C° 0 mm 2 mps 753 mmHg 46%
    22:00 +27°C° 0 mm 2 mps 753 mmHg 47%
    23:00 +27°C° 0 mm 2 mps 752 mmHg 49%

    27 September, Wednesday

    Time Temperature Precipitation Wind Pressure Humidity
    00:00 +26°C° 0 mm 2 mps 752 mmHg 50%
    01:00 +25°C° 0 mm 2 mps 752 mmHg 53%
    02:00 +25°C° 0 mm 2 mps 752 mmHg 55%
    03:00 +24°C° 0 mm 2 mps 752 mmHg 58%
    04:00 +24°C° 0 mm 2 mps 752 mmHg 60%
    05:00 +24°C° 0 mm 2 mps 753 mmHg 63%
    06:00 +23°C° 0 mm 2 mps 753 mmHg 65%
    07:00 +25°C° 0 mm 2 mps 753 mmHg 57%
    08:00 +27°C° 0 mm 2 mps 753 mmHg 49%
    09:00 +28°C° 0 mm 2 mps 754 mmHg 42%
    10:00 +30°C° 0 mm 3 mps 754 mmHg 38%
    11:00 +31°C° 0 mm 3 mps 754 mmHg 33%
    12:00 +33°C° 0 mm 4 mps 754 mmHg 29%
    13:00 +33°C° 0 mm 5 mps 754 mmHg 30%
    14:00 +33°C° 0 mm 5 mps 753 mmHg 31%
    15:00 +33°C° 0 mm 5 mps 753 mmHg 33%
    16:00 +32°C° 0 mm 5 mps 753 mmHg 37%
    17:00 +30°C° 0 mm 5 mps 754 mmHg 42%
    18:00 +29°C° 0 mm 5 mps 754 mmHg 47%
    19:00 +28°C° 0 mm 4 mps 754 mmHg 51%
    20:00 +28°C° 0 mm 4 mps 755 mmHg 54%
    21:00 +27°C° 0 mm 4 mps 755 mmHg 58%
    22:00 +26°C° 0 mm 3 mps 755 mmHg 61%
    23:00 +26°C° 0 mm 3 mps 755 mmHg 64%

    28 September, Thursday

    Time Temperature Precipitation Wind Pressure Humidity
    00:00 +25°C° 0 mm 3 mps 755 mmHg 67%
    01:00 +25°C° 0 mm 3 mps 755 mmHg 69%
    02:00 +25°C° 0 mm 3 mps 755 mmHg 72%
    03:00 +24°C° 0 mm 3 mps 755 mmHg 74%
    04:00 +23°C° 0 mm 4 mps 755 mmHg 77%
    05:00 +22°C° 0 mm 4 mps 755 mmHg 79%
    06:00 +22°C° 0 mm 4 mps 756 mmHg 82%
    07:00 +23°C° 0 mm 4 mps 756 mmHg 74%
    08:00 +26°C° 0 mm 4 mps 756 mmHg 66%
    09:00 +27°C° 0 mm 4 mps 757 mmHg 58%
    10:00 +28°C° 0 mm 5 mps 757 mmHg 51%
    11:00 +30°C° 0 mm 5 mps 757 mmHg 45%
    12:00 +32°C° 0 mm 6 mps 756 mmHg 38%
    13:00 +32°C° 0 mm 6 mps 756 mmHg 38%
    14:00 +32°C° 0 mm 7 mps 756 mmHg 38%
    15:00 +33°C° 0 mm 7 mps 755 mmHg 38%
    16:00 +30°C° 0 mm 7 mps 756 mmHg 43%
    17:00 +29°C° 0 mm 7 mps 756 mmHg 47%
    18:00 +28°C° 0 mm 7 mps 756 mmHg 52%
    19:00 +27°C° 0 mm 6 mps 756 mmHg 54%
    20:00 +27°C° 0 mm 6 mps 757 mmHg 57%
    21:00 +26°C° 0 mm 6 mps 757 mmHg 59%
    22:00 +26°C° 0 mm 5 mps 757 mmHg 62%
    23:00 +25°C° 0 mm 5 mps 757 mmHg 64%
    Show more